Time,TemperatureF,DewpointF,PressureIn,WindDirection,WindDirectionDegrees,WindSpeedMPH,WindSpeedGustMPH,Humidity,HourlyPrecipIn,Conditions,Clouds,dailyrainin,SolarRadiationWatts/m^2,SoftwareType,DateUTC
2013-04-21 00:00:00,41.0,39.0,29.82,West,280,8.0,-999.0,92,-99.99,,,-99.99,0.090000,,2013-04-21 06:00:00,
2013-04-21 00:52:00,41.0,39.0,29.82,West,280,8.0,-999.0,92,-99.99,,,-99.99,0.090000,,2013-04-21 06:52:00,
2013-04-21 02:00:00,37.0,35.0,29.87,NW,305,22.0,-999.0,94,-99.99,,,-99.99,0.040000,,2013-04-21 08:00:00,
2013-04-21 02:52:00,37.0,35.0,29.87,NW,305,22.0,-999.0,94,-99.99,,,-99.99,0.040000,,2013-04-21 08:52:00,
2013-04-21 03:00:00,34.0,33.0,29.90,NW,318,21.0,-999.0,96,-99.99,,,-99.99,0.040000,,2013-04-21 09:00:00,
2013-04-21 03:53:00,34.0,33.0,29.90,NW,318,21.0,-999.0,96,-99.99,,,-99.99,0.040000,,2013-04-21 09:53:00,
2013-04-21 04:00:00,32.0,31.0,29.93,NW,326,18.0,-999.0,95,-99.99,,,-99.99,0.060000,,2013-04-21 10:00:00,
2013-04-21 04:52:00,32.0,31.0,29.93,NW,326,18.0,-999.0,95,-99.99,,,-99.99,0.060000,,2013-04-21 10:52:00,
2013-04-21 05:00:00,32.0,31.0,29.96,NNW,329,13.0,-999.0,96,-99.99,,,-99.99,0.050000,,2013-04-21 11:00:00,
2013-04-21 05:52:00,32.0,31.0,29.96,NNW,329,13.0,-999.0,96,-99.99,,,-99.99,0.050000,,2013-04-21 11:52:00,
2013-04-21 06:00:00,32.0,31.0,29.98,NW,319,13.0,-999.0,95,-99.99,,,-99.99,0.130000,,2013-04-21 12:00:00,
2013-04-21 06:52:00,32.0,31.0,29.98,NW,319,13.0,-999.0,95,-99.99,,,-99.99,0.130000,,2013-04-21 12:52:00,
2013-04-21 07:00:00,30.0,27.0,30.00,NW,314,16.0,-999.0,88,-99.99,,,-99.99,14.020000,,2013-04-21 13:00:00,
2013-04-21 07:52:00,30.0,27.0,30.00,NW,314,16.0,-999.0,88,-99.99,,,-99.99,14.020000,,2013-04-21 13:52:00,
2013-04-21 08:00:00,30.0,27.0,30.03,NW,318,18.0,-999.0,88,-99.99,,,-99.99,40.790001,,2013-04-21 14:00:00,
2013-04-21 08:52:00,30.0,27.0,30.03,NW,318,18.0,-999.0,88,-99.99,,,-99.99,40.790001,,2013-04-21 14:52:00,
2013-04-21 09:00:00,29.0,27.0,30.05,NW,318,15.0,-999.0,92,-99.99,,,-99.99,95.900002,,2013-04-21 15:00:00,
2013-04-21 09:53:00,29.0,27.0,30.05,NW,318,15.0,-999.0,92,-99.99,,,-99.99,95.900002,,2013-04-21 15:53:00,
2013-04-21 10:00:00,30.0,27.0,30.06,NW,315,15.0,-999.0,89,-99.99,,,-99.99,182.199997,,2013-04-21 16:00:00,
2013-04-21 10:53:00,30.0,27.0,30.06,NW,315,15.0,-999.0,89,-99.99,,,-99.99,182.199997,,2013-04-21 16:53:00,
2013-04-21 11:00:00,32.0,29.0,30.07,NW,312,16.0,-999.0,88,-99.99,,,-99.99,290.899994,,2013-04-21 17:00:00,
2013-04-21 11:52:00,32.0,29.0,30.07,NW,312,16.0,-999.0,88,-99.99,,,-99.99,290.899994,,2013-04-21 17:52:00,
2013-04-21 12:00:00,32.0,26.0,30.08,NW,323,17.0,-999.0,78,-99.99,,,-99.99,373.500000,,2013-04-21 18:00:00,
2013-04-21 12:52:00,32.0,26.0,30.08,NW,323,17.0,-999.0,78,-99.99,,,-99.99,373.500000,,2013-04-21 18:52:00,
2013-04-21 13:00:00,32.0,25.0,30.08,NW,321,16.0,-999.0,73,-99.99,,,-99.99,264.799988,,2013-04-21 19:00:00,
2013-04-21 13:52:00,32.0,25.0,30.08,NW,321,16.0,-999.0,73,-99.99,,,-99.99,264.799988,,2013-04-21 19:52:00,
2013-04-21 14:00:00,34.0,23.0,30.09,NW,320,15.0,-999.0,64,-99.99,,,-99.99,281.000000,,2013-04-21 20:00:00,
2013-04-21 14:52:00,34.0,23.0,30.09,NW,320,15.0,-999.0,64,-99.99,,,-99.99,281.000000,,2013-04-21 20:52:00,
2013-04-21 15:00:00,35.0,22.0,30.09,NNW,328,13.0,-999.0,58,-99.99,,,-99.99,343.600006,,2013-04-21 21:00:00,
2013-04-21 15:53:00,35.0,22.0,30.09,NNW,328,13.0,-999.0,58,-99.99,,,-99.99,343.600006,,2013-04-21 21:53:00,
2013-04-21 16:00:00,36.0,20.0,30.09,NW,317,13.0,-999.0,53,-99.99,,,-99.99,341.200012,,2013-04-21 22:00:00,
2013-04-21 16:53:00,36.0,20.0,30.09,NW,317,13.0,-999.0,53,-99.99,,,-99.99,341.200012,,2013-04-21 22:53:00,
2013-04-21 17:00:00,37.0,20.0,30.10,NW,316,13.0,-999.0,50,-99.99,,,-99.99,324.899994,,2013-04-21 23:00:00,
2013-04-21 17:52:00,37.0,20.0,30.10,NW,316,13.0,-999.0,50,-99.99,,,-99.99,324.899994,,2013-04-21 23:52:00,
2013-04-21 18:00:00,37.0,19.0,30.10,NNW,333,12.0,-999.0,47,-99.99,,,-99.99,242.899994,,2013-04-22 00:00:00,
2013-04-21 18:52:00,37.0,19.0,30.10,NNW,333,12.0,-999.0,47,-99.99,,,-99.99,242.899994,,2013-04-22 00:52:00,
2013-04-21 19:00:00,35.0,19.0,30.10,NNW,346,12.0,-999.0,51,-99.99,,,-99.99,136.000000,,2013-04-22 01:00:00,
2013-04-21 19:52:00,35.0,19.0,30.10,NNW,346,12.0,-999.0,51,-99.99,,,-99.99,136.000000,,2013-04-22 01:52:00,
2013-04-21 20:00:00,32.0,19.0,30.13,North,1,8.0,-999.0,60,-99.99,,,-99.99,19.900000,,2013-04-22 02:00:00,
2013-04-21 20:52:00,32.0,19.0,30.13,North,1,8.0,-999.0,60,-99.99,,,-99.99,19.900000,,2013-04-22 02:52:00,
2013-04-21 21:00:00,29.0,20.0,30.15,NNE,13,8.0,-999.0,66,-99.99,,,-99.99,0.310000,,2013-04-22 03:00:00,
2013-04-21 21:53:00,29.0,20.0,30.15,NNE,13,8.0,-999.0,66,-99.99,,,-99.99,0.310000,,2013-04-22 03:53:00,
2013-04-21 22:00:00,27.0,21.0,30.18,NNE,20,8.0,-999.0,78,-99.99,,,-99.99,0.040000,,2013-04-22 04:00:00,
2013-04-21 22:53:00,27.0,21.0,30.18,NNE,20,8.0,-999.0,78,-99.99,,,-99.99,0.040000,,2013-04-22 04:53:00,
2013-04-21 23:00:00,26.0,20.0,30.20,North,7,7.0,-999.0,79,-99.99,,,-99.99,0.030000,,2013-04-22 05:00:00,
2013-04-21 23:52:00,26.0,20.0,30.20,North,7,7.0,-999.0,79,-99.99,,,-99.99,0.030000,,2013-04-22 05:52:00,